Total_Precipitation_Accumulation
3.05 2.70 4.36 4.56 4.12 3.73 3.46 3.57 3.83 3.82 3.92 3.93 3.82 3.48 3.35 3.39 3.60 3.70 3.45 3.17 3.09 3.19 3.58 3.81 3.81 3.86 3.71 3.66 3.65 3.78 4.01 4.24 4.27 3.84 3.76 3.80 3.66 3.54 3.55 3.63 3.83 4.21 3.92
2.23 2.27 3.80 4.33 4.10 3.85 3.73 3.71 3.82 3.87 3.85 3.78 3.58 3.46 3.15 3.05 3.42 3.87 3.64 3.41 3.22 3.23 3.32 3.51 3.77 3.95 3.91 3.88 4.07 4.14 4.17 4.22 4.37 4.10 4.09 4.15 4.06 3.88 3.54 3.59 4.07 4.36 3.81
1.94 2.12 2.96 4.10 4.03 3.73 3.81 3.76 3.68 3.64 3.56 3.50 3.37 3.14 3.06 3.01 3.13 3.51 3.49 3.40 3.20 3.19 3.42 3.54 3.72 3.91 3.96 4.00 4.29 4.40 4.31 4.30 4.25 4.03 4.15 4.44 4.10 4.14 3.96 3.80 3.75 3.75 3.62
1.60 1.90 2.51 3.54 3.49 3.44 3.46 3.21 3.13 3.15 3.08 3.16 3.18 2.99 3.00 3.09 3.20 3.47 3.43 3.25 3.04 2.93 3.08 3.36 3.63 3.71 3.75 3.87 4.05 4.32 4.19 4.27 4.15 3.68 3.72 4.14 4.18 4.27 4.27 4.04 3.82 3.70 3.81
1.31 1.68 2.54 3.37 3.16 3.17 3.13 2.85 2.88 2.83 2.84 2.96 3.05 2.97 3.10 3.10 3.16 3.40 3.48 3.46 3.33 3.33 3.31 3.47 3.57 3.61 3.78 3.84 3.98 4.18 4.17 4.09 3.87 3.24 3.24 3.79 4.63 4.65 4.28 4.14 4.01 3.95 4.04
1.32 1.52 2.18 2.96 2.87 2.79 2.71 2.76 2.80 2.76 2.74 2.75 2.87 2.95 3.07 3.14 3.12 3.36 3.58 3.51 3.31 3.48 3.69 3.80 3.76 3.75 3.84 3.93 3.86 4.02 4.20 3.93 3.37 3.27 3.50 3.93 4.47 4.55 4.13 3.93 4.02 4.20 4.43
1.18 1.24 1.71 2.55 2.64 2.59 2.59 2.68 2.81 2.74 2.77 2.67 2.75 2.99 3.11 3.13 3.19 3.34 3.59 3.58 3.26 3.34 3.75 3.94 3.96 3.92 3.79 3.75 3.85 3.80 3.97 3.63 3.16 3.34 3.60 3.92 4.16 4.43 4.12 3.91 4.05 4.26 4.60
1.28 1.20 1.43 2.20 2.40 2.35 2.52 2.54 2.63 2.77 2.75 2.63 2.67 2.74 2.89 3.01 3.04 3.17 3.27 3.28 3.12 3.13 3.34 3.47 3.49 3.69 3.54 3.49 3.57 3.48 3.47 2.99 2.54 2.74 3.14 3.74 4.38 4.50 4.00 3.78 3.85 4.09 4.36
1.54 1.48 1.57 1.81 2.02 2.25 2.45 2.46 2.61 2.77 2.72 2.57 2.48 2.50 2.52 2.66 2.68 2.75 2.86 3.05 3.07 3.20 3.24 3.25 3.42 3.58 3.49 3.42 3.30 3.37 3.34 2.80 2.47 2.71 2.67 3.64 4.64 4.70 4.22 3.82 3.68 3.85 4.14
1.47 1.46 1.50 1.66 1.75 1.82 2.00 2.42 2.72 3.09 2.96 2.53 2.28 2.14 2.29 2.37 2.36 2.51 2.62 2.94 3.25 3.46 3.68 3.65 3.73 3.52 3.39 3.18 2.94 3.03 2.97 2.51 2.56 2.53 2.96 3.76 4.98 4.97 4.49 4.01 3.63 3.50 3.66
1.17 1.21 1.32 1.42 1.50 1.61 1.60 1.87 2.45 2.93 2.92 2.44 2.07 2.04 1.97 1.80 1.80 1.99 2.27 2.81 3.19 3.47 3.79 3.82 3.66 3.39 3.05 2.81 2.64 2.54 2.28 2.23 2.49 2.64 3.17 4.10 4.87 4.98 4.42 3.90 3.57 3.52 3.46
1.03 0.98 1.00 1.00 1.10 1.20 1.21 1.56 1.92 1.94 2.17 1.94 1.86 1.79 1.78 1.84 1.86 1.58 1.77 2.33 2.75 3.07 3.35 3.59 3.47 2.99 2.34 2.10 2.19 2.15 1.86 1.85 2.10 2.42 3.17 4.34 4.99 4.99 4.38 3.96 3.68 3.66 3.45
0.93 0.91 0.84 0.81 0.87 1.03 1.21 1.37 1.60 1.78 1.93 1.92 1.86 1.86 1.96 1.92 1.65 1.51 1.59 1.76 2.05 2.37 2.51 2.75 2.72 2.24 1.88 1.77 1.90 1.88 1.76 1.74 2.08 2.38 3.17 4.30 5.05 5.12 4.46 4.03 3.82 3.89 3.80
0.78 0.86 0.81 0.66 0.69 0.78 0.87 1.04 1.20 1.43 1.66 1.74 1.58 1.54 1.73 1.81 1.64 1.51 1.70 1.76 1.97 2.27 2.55 2.65 2.42 2.07 1.68 1.52 1.66 1.70 1.59 1.72 1.97 2.22 2.87 3.64 4.53 5.06 4.85 4.43 4.19 4.03 4.01
0.78 0.84 0.87 0.76 0.71 0.75 0.82 0.90 0.91 1.21 1.40 1.57 1.65 1.44 1.58 1.68 1.64 1.54 1.50 1.69 1.78 2.08 2.34 2.50 2.38 2.15 1.86 1.59 1.56 1.54 1.63 1.67 1.75 1.86 2.34 2.89 3.43 4.30 4.77 4.72 4.59 4.49 4.45
0.76 0.86 0.86 0.84 0.81 0.81 0.84 0.84 0.85 0.92 1.01 1.12 1.09 1.09 1.25 1.39 1.42 1.46 1.39 1.49 1.68 2.01 2.44 2.59 2.34 2.19 1.97 1.82 1.79 1.71 1.69 1.66 1.71 1.68 1.94 2.27 2.41 2.88 3.63 4.30 4.67 4.72 4.75
0.77 0.84 0.90 0.92 0.96 0.96 0.94 0.98 0.97 0.94 0.96 0.96 0.94 0.95 1.02 1.15 1.22 1.32 1.40 1.44 1.59 1.94 2.41 2.70 2.56 2.35 2.08 1.98 1.94 1.86 1.77 1.77 1.72 1.64 1.79 2.04 2.00 2.13 2.68 3.46 4.29 4.70 4.65
0.78 0.76 0.80 0.82 0.91 0.92 0.94 0.98 1.09 1.09 1.10 1.09 1.12 1.08 1.02 1.16 1.25 1.35 1.47 1.45 1.52 1.84 2.27 2.64 2.77 2.78 2.56 2.37 2.20 2.05 1.93 2.08 1.92 1.78 1.84 2.03 2.17 2.02 2.14 2.62 3.34 4.16 4.51
0.77 0.72 0.71 0.74 0.76 0.78 0.78 0.84 0.98 1.07 1.15 1.24 1.25 1.24 1.26 1.32 1.34 1.44 1.65 1.69 1.70 1.95 2.17 2.29 2.52 2.73 2.80 2.59 2.23 2.13 2.01 2.14 2.26 2.15 2.21 2.29 2.33 2.27 2.16 2.18 2.54 3.03 3.79
0.75 0.76 0.74 0.73 0.71 0.68 0.67 0.76 0.90 1.00 1.07 1.27 1.34 1.38 1.67 1.78 1.56 1.52 1.70 1.75 1.82 2.11 2.24 2.37 2.65 2.77 2.86 2.85 2.42 2.21 2.11 2.10 2.17 2.38 2.51 2.51 2.50 2.32 2.30 2.17 2.36 2.48 3.10
0.58 0.59 0.67 0.69 0.77 0.76 0.64 0.62 0.77 0.94 1.09 1.26 1.43 1.44 1.67 1.76 1.65 1.69 1.76 1.80 1.86 2.02 2.10 2.27 2.71 2.86 2.88 2.79 2.87 2.80 2.59 2.29 2.19 2.27 2.41 2.64 2.73 2.55 2.50 2.53 2.45 2.39 2.53
0.54 0.52 0.56 0.62 0.73 0.84 0.83 0.81 0.91 1.12 1.24 1.37 1.56 1.58 1.65 1.66 1.63 1.55 1.78 1.95 1.92 2.10 2.17 2.35 2.72 3.04 2.89 2.80 3.19 3.63 3.36 3.01 2.58 2.26 2.31 2.39 2.63 2.66 2.54 2.42 2.28 2.27 2.36
0.44 0.44 0.50 0.63 0.79 0.97 1.14 1.38 1.61 1.90 2.06 1.92 1.80 1.88 1.95 2.00 1.92 1.84 1.94 2.12 2.09 2.17 2.28 2.34 2.51 3.06 3.31 3.13 3.08 3.67 3.56 3.34 3.25 2.65 2.21 2.10 2.39 2.62 2.66 2.50 2.35 2.36 2.39
0.45 0.54 0.66 0.85 1.01 1.21 1.42 1.67 1.95 2.22 2.42 2.36 2.38 2.44 2.38 2.30 2.19 2.04 2.07 2.18 2.23 2.31 2.29 2.13 2.34 2.90 3.47 3.58 3.34 3.06 2.89 2.82 3.00 2.96 2.39 2.02 2.07 2.29 2.55 2.45 2.40 2.47 2.51
0.63 0.78 0.93 1.25 1.45 1.57 1.63 1.74 2.00 2.10 2.18 2.25 2.36 2.41 2.42 2.34 2.23 2.10 2.04 2.21 2.30 2.36 2.34 2.39 2.55 2.87 3.21 3.55 3.55 3.31 3.00 2.71 2.26 2.45 2.53 2.31 2.01 1.92 2.01 2.14 2.30 2.39 2.45
0.98 1.24 1.39 1.57 1.82 1.78 1.69 1.69 1.80 1.94 2.05 2.13 2.25 2.28 2.22 2.11 2.08 2.06 2.08 2.10 2.10 2.19 2.28 2.43 2.68 2.83 3.02 3.24 3.33 3.03 2.91 2.83 2.57 2.36 2.21 2.30 2.28 1.99 1.78 1.74 1.86 2.09 2.20